| time (UTC) | temp F | wind direction | speed MPH | gust MPH | rain 1hr in | rain 24hr in | rain mn in | humidity % | barometer mb |
| 20260903081502 | 55 | 127 | 1.0 | 5.0 | 0.00 | 0.59 | 0.01 | 94 | 1008.0 |
| 20260903081003 | 55 | 126 | 1.0 | 3.0 | 0.01 | 0.59 | 0.01 | 94 | 1008.0 |
| 20260903080502 | 55 | 131 | 1.0 | 2.0 | 0.01 | 0.59 | 0.01 | 94 | 1008.0 |
| 20260903080023 | 55 | 135 | 1.0 | 2.0 | 0.01 | 0.59 | 0.01 | 94 | 1008.0 |
| 20260903075523 | 55 | 131 | 1.0 | 2.0 | 0.01 | 0.59 | 0.01 | 94 | 1008.0 |
| 20260903075002 | 55 | 127 | 1.0 | 2.0 | 0.01 | 0.59 | 0.01 | 94 | 1008.0 |
| 20260903074503 | 55 | 127 | 1.0 | 2.0 | 0.02 | 0.59 | 0.01 | 94 | 1008.1 |
| 20260903074002 | 55 | 128 | 1.0 | 2.0 | 0.02 | 0.59 | 0.01 | 94 | 1008.0 |
| 20260903073502 | 55 | 128 | 1.0 | 2.0 | 0.02 | 0.59 | 0.01 | 94 | 1008.0 |
| 20260903073002 | 55 | 121 | 1.0 | 3.0 | 0.02 | 0.59 | 0.01 | 94 | 1008.0 |
| 20260903072502 | 55 | 120 | 1.0 | 3.0 | 0.03 | 0.59 | 0.01 | 94 | 1008.0 |
| 20260903072002 | 55 | 123 | 1.0 | 4.0 | 0.04 | 0.59 | 0.01 | 94 | 1007.9 |
| 20260903071502 | 55 | 122 | 1.0 | 4.0 | 0.05 | 0.59 | 0.01 | 94 | 1008.0 |
| 20260903071002 | 55 | 119 | 0.0 | 3.0 | 0.04 | 0.58 | 0.00 | 94 | 1008.0 |
| 20260903070502 | 55 | 123 | 0.0 | 1.0 | 0.05 | 0.58 | 0.00 | 94 | 1008.0 |
| 20260903070003 | 55 | 0 | 0.0 | 0.0 | 0.05 | 0.58 | 0.00 | 94 | 1008.0 |
| 20260903065502 | 55 | 0 | 0.0 | 0.0 | 0.05 | 0.58 | 0.58 | 94 | 1008.0 |
| 20260903065002 | 55 | 118 | 0.0 | 4.0 | 0.05 | 0.58 | 0.58 | 94 | 1008.0 |
| 20260903064502 | 55 | 124 | 1.0 | 4.0 | 0.04 | 0.57 | 0.57 | 94 | 1008.1 |
| 20260903064002 | 55 | 130 | 1.0 | 7.0 | 0.04 | 0.57 | 0.57 | 94 | 1008.1 |
| 20260903063502 | 55 | 144 | 1.0 | 7.0 | 0.04 | 0.57 | 0.57 | 94 | 1008.0 |
| 20260903063002 | 55 | 164 | 1.0 | 3.0 | 0.04 | 0.57 | 0.57 | 94 | 1008.1 |
| 20260903062502 | 55 | 164 | 1.0 | 3.0 | 0.03 | 0.56 | 0.56 | 93 | 1008.1 |
| 20260903062023 | 55 | 172 | 0.0 | 2.0 | 0.02 | 0.55 | 0.55 | 93 | 1008.1 |
| 20260903061523 | 55 | 186 | 0.0 | 2.0 | 0.01 | 0.54 | 0.54 | 93 | 1008.1 |
| 20260903061002 | 55 | 187 | 0.0 | 2.0 | 0.01 | 0.54 | 0.54 | 93 | 1008.1 |
| 20260903060502 | 55 | 184 | 0.0 | 2.0 | 0.00 | 0.53 | 0.53 | 93 | 1008.1 |
| 20260903060002 | 55 | 142 | 0.0 | 1.0 | 0.00 | 0.53 | 0.53 | 93 | 1008.0 |
| 20260903055502 | 55 | 125 | 0.0 | 1.0 | 0.00 | 0.53 | 0.53 | 93 | 1008.0 |
| 20260903055002 | 55 | 125 | 0.0 | 1.0 | 0.00 | 0.53 | 0.53 | 93 | 1007.9 |
| 20260903054502 | 55 | 0 | 0.0 | 0.0 | 0.00 | 0.53 | 0.53 | 93 | 1008.0 |
| 20260903054002 | 55 | 0 | 0.0 | 0.0 | 0.00 | 0.53 | 0.53 | 93 | 1008.0 |
| 20260903053503 | 55 | 122 | 0.0 | 1.0 | 0.00 | 0.53 | 0.53 | 93 | 1008.0 |
| 20260903053023 | 55 | 128 | 0.0 | 1.0 | 0.00 | 0.53 | 0.53 | 93 | 1008.0 |
| 20260903052502 | 55 | 134 | 0.0 | 1.0 | 0.00 | 0.53 | 0.53 | 93 | 1008.0 |
| 20260903052002 | 55 | 0 | 0.0 | 0.0 | 0.00 | 0.53 | 0.53 | 93 | 1008.0 |
| 20260903051503 | 55 | 0 | 0.0 | 0.0 | 0.00 | 0.53 | 0.53 | 93 | 1008.0 |
| 20260903051002 | 55 | 0 | 0.0 | 0.0 | 0.00 | 0.53 | 0.53 | 93 | 1007.9 |
| 20260903050502 | 55 | 0 | 0.0 | 0.0 | 0.00 | 0.53 | 0.53 | 93 | 1007.9 |
| 20260903050002 | 55 | 0 | 0.0 | 0.0 | 0.00 | 0.53 | 0.53 | 93 | 1008.0 |
| 20260903045502 | 56 | 111 | 0.0 | 2.0 | 0.00 | 0.53 | 0.53 | 93 | 1007.9 |
| 20260903045002 | 56 | 111 | 0.0 | 2.0 | 0.00 | 0.53 | 0.53 | 93 | 1007.9 |
| 20260903044503 | 56 | 120 | 0.0 | 1.0 | 0.00 | 0.53 | 0.53 | 93 | 1007.9 |
| 20260903044002 | 56 | 138 | 0.0 | 1.0 | 0.00 | 0.53 | 0.53 | 93 | 1007.8 |
| 20260903043502 | 56 | 148 | 0.0 | 1.0 | 0.00 | 0.53 | 0.53 | 93 | 1007.8 |
| 20260903043002 | 56 | 137 | 0.0 | 1.0 | 0.00 | 0.53 | 0.53 | 93 | 1007.7 |
| 20260903042502 | 56 | 141 | 0.0 | 2.0 | 0.00 | 0.53 | 0.53 | 93 | 1007.6 |
| 20260903042002 | 56 | 140 | 0.0 | 2.0 | 0.00 | 0.53 | 0.53 | 93 | 1007.5 |
| 20260903041523 | 56 | 130 | 0.0 | 2.0 | 0.00 | 0.53 | 0.53 | 93 | 1007.5 |
| 20260903041002 | 56 | 125 | 0.0 | 3.0 | 0.00 | 0.53 | 0.53 | 94 | 1007.5 |
| 20260903040502 | 56 | 123 | 0.0 | 3.0 | 0.00 | 0.53 | 0.53 | 94 | 1007.4 |
| 20260903040023 | 56 | 0 | 0.0 | 0.0 | 0.00 | 0.53 | 0.53 | 94 | 1007.4 |
| 20260903035502 | 56 | 134 | 0.0 | 5.0 | 0.00 | 0.53 | 0.53 | 94 | 1007.3 |
| 20260903035003 | 56 | 118 | 0.0 | 5.0 | 0.00 | 0.53 | 0.53 | 94 | 1007.1 |
| 20260903034502 | 56 | 113 | 0.0 | 4.0 | 0.00 | 0.53 | 0.53 | 94 | 1007.1 |
| 20260903034002 | 56 | 122 | 0.0 | 3.0 | 0.00 | 0.53 | 0.53 | 94 | 1007.0 |
| 20260903033502 | 57 | 117 | 0.0 | 1.0 | 0.00 | 0.53 | 0.53 | 94 | 1007.0 |
| 20260903033002 | 57 | 122 | 0.0 | 2.0 | 0.00 | 0.53 | 0.53 | 94 | 1006.8 |
| 20260903032502 | 57 | 126 | 0.0 | 3.0 | 0.00 | 0.53 | 0.53 | 94 | 1006.9 |
| 20260903032002 | 57 | 127 | 0.0 | 3.0 | 0.00 | 0.53 | 0.53 | 94 | 1006.9 |
| 20260903031502 | 57 | 127 | 1.0 | 3.0 | 0.00 | 0.53 | 0.53 | 94 | 1006.8 |
| 20260903031002 | 57 | 127 | 1.0 | 3.0 | 0.00 | 0.53 | 0.53 | 94 | 1006.8 |
| 20260903030502 | 57 | 126 | 1.0 | 2.0 | 0.00 | 0.53 | 0.53 | 94 | 1006.8 |
| 20260903030002 | 57 | 133 | 0.0 | 2.0 | 0.00 | 0.53 | 0.53 | 94 | 1006.9 |
| 20260903025502 | 57 | 149 | 0.0 | 2.0 | 0.00 | 0.53 | 0.53 | 94 | 1006.8 |
| 20260903025002 | 57 | 120 | 0.0 | 1.0 | 0.00 | 0.53 | 0.53 | 94 | 1006.7 |
| 20260903024523 | 58 | 120 | 0.0 | 1.0 | 0.00 | 0.53 | 0.53 | 94 | 1006.7 |
| 20260903024002 | 58 | 117 | 0.0 | 1.0 | 0.00 | 0.53 | 0.53 | 94 | 1006.5 |
| 20260903023523 | 58 | 125 | 0.0 | 2.0 | 0.01 | 0.53 | 0.53 | 94 | 1006.4 |
| 20260903023002 | 58 | 126 | 0.0 | 2.0 | 0.01 | 0.53 | 0.53 | 94 | 1006.4 |
| 20260903022502 | 58 | 142 | 0.0 | 2.0 | 0.01 | 0.53 | 0.53 | 94 | 1006.5 |
| 20260903022023 | 58 | 133 | 0.0 | 11.0 | 0.01 | 0.53 | 0.53 | 94 | 1006.3 |
| 20260903021502 | 58 | 125 | 0.0 | 11.0 | 0.01 | 0.53 | 0.53 | 94 | 1006.5 |
| 20260903021002 | 58 | 104 | 0.0 | 3.0 | 0.01 | 0.53 | 0.53 | 94 | 1006.5 |
| 20260903020523 | 58 | 91 | 0.0 | 4.0 | 0.01 | 0.53 | 0.53 | 94 | 1006.3 |
| 20260903020002 | 58 | 102 | 0.0 | 4.0 | 0.01 | 0.53 | 0.53 | 94 | 1006.2 |
| 20260903015502 | 58 | 125 | 0.0 | 4.0 | 0.01 | 0.53 | 0.53 | 94 | 1006.2 |
| 20260903015002 | 58 | 123 | 0.0 | 4.0 | 0.01 | 0.53 | 0.53 | 94 | 1006.2 |
| 20260903014502 | 58 | 129 | 0.0 | 1.0 | 0.01 | 0.53 | 0.53 | 94 | 1006.2 |
| 20260903014002 | 58 | 0 | 0.0 | 0.0 | 0.01 | 0.53 | 0.53 | 94 | 1006.1 |
| 20260903013502 | 58 | 0 | 0.0 | 0.0 | 0.00 | 0.52 | 0.52 | 94 | 1006.0 |
| 20260903013002 | 58 | 120 | 0.0 | 2.0 | 0.00 | 0.52 | 0.52 | 94 | 1006.1 |
| 20260903012502 | 58 | 132 | 1.0 | 2.0 | 0.00 | 0.52 | 0.52 | 94 | 1006.0 |
| 20260903012002 | 58 | 148 | 1.0 | 3.0 | 0.00 | 0.52 | 0.52 | 94 | 1006.0 |
| 20260903011502 | 58 | 158 | 1.0 | 3.0 | 0.00 | 0.52 | 0.52 | 94 | 1006.0 |
| 20260903011002 | 59 | 171 | 1.0 | 2.0 | 0.00 | 0.52 | 0.52 | 94 | 1005.9 |
| 20260903010523 | 59 | 184 | 1.0 | 4.0 | 0.00 | 0.52 | 0.52 | 94 | 1005.9 |
| 20260903010002 | 59 | 170 | 0.0 | 4.0 | 0.00 | 0.52 | 0.52 | 94 | 1005.8 |
| 20260903005502 | 59 | 139 | 0.0 | 4.0 | 0.00 | 0.52 | 0.52 | 94 | 1005.8 |
| 20260903005002 | 59 | 125 | 0.0 | 5.0 | 0.01 | 0.52 | 0.52 | 94 | 1005.7 |
| 20260903004502 | 59 | 109 | 0.0 | 5.0 | 0.01 | 0.52 | 0.52 | 95 | 1005.7 |
| 20260903004002 | 59 | 195 | 0.0 | 1.0 | 0.02 | 0.52 | 0.52 | 95 | 1005.7 |
| 20260903003523 | 59 | 0 | 0.0 | 0.0 | 0.04 | 0.52 | 0.52 | 95 | 1005.6 |
| 20260903003002 | 58 | 0 | 0.0 | 0.0 | 0.10 | 0.52 | 0.52 | 94 | 1005.6 |
| 20260903002523 | 58 | 0 | 0.0 | 0.0 | 0.16 | 0.52 | 0.52 | 94 | 1005.5 |
| 20260903002002 | 58 | 145 | 0.0 | 1.0 | 0.20 | 0.52 | 0.52 | 94 | 1005.6 |
| 20260903001502 | 57 | 163 | 0.0 | 1.0 | 0.22 | 0.52 | 0.52 | 94 | 1005.5 |
| 20260903001002 | 57 | 169 | 0.0 | 1.0 | 0.22 | 0.52 | 0.52 | 94 | 1005.4 |
| 20260903000502 | 57 | 0 | 0.0 | 0.0 | 0.22 | 0.52 | 0.52 | 94 | 1005.5 |
| 20260903000002 | 57 | 0 | 0.0 | 0.0 | 0.22 | 0.52 | 0.52 | 93 | 1005.5 |
| 20260902235502 | 57 | 196 | 0.0 | 4.0 | 0.22 | 0.52 | 0.52 | 93 | 1005.5 |
| 20260902235002 | 57 | 180 | 1.0 | 16.0 | 0.21 | 0.51 | 0.51 | 93 | 1005.4 |
| 20260902234502 | 57 | 180 | 2.0 | 16.0 | 0.21 | 0.51 | 0.51 | 93 | 1005.4 |
| 20260902234002 | 57 | 178 | 2.0 | 14.0 | 0.20 | 0.50 | 0.50 | 92 | 1005.4 |
| 20260902233502 | 58 | 184 | 2.0 | 11.0 | 0.18 | 0.48 | 0.48 | 92 | 1005.5 |
| 20260902233002 | 58 | 189 | 1.0 | 11.0 | 0.12 | 0.42 | 0.42 | 92 | 1005.3 |
| 20260902232502 | 59 | 210 | 1.0 | 6.0 | 0.06 | 0.36 | 0.36 | 92 | 1005.2 |
| 20260902232002 | 59 | 207 | 1.0 | 9.0 | 0.02 | 0.32 | 0.32 | 92 | 1005.2 |
| 20260902231502 | 59 | 198 | 1.0 | 9.0 | 0.00 | 0.30 | 0.30 | 91 | 1005.2 |
| 20260902231002 | 59 | 194 | 0.0 | 5.0 | 0.00 | 0.30 | 0.30 | 90 | 1005.0 |
| 20260902230523 | 59 | 189 | 0.0 | 11.0 | 0.00 | 0.30 | 0.30 | 90 | 1005.0 |
| 20260902230002 | 59 | 174 | 1.0 | 11.0 | 0.00 | 0.30 | 0.30 | 89 | 1005.0 |
| 20260902225502 | 60 | 170 | 1.0 | 11.0 | 0.00 | 0.30 | 0.30 | 89 | 1004.9 |
| 20260902225002 | 60 | 176 | 1.0 | 9.0 | 0.00 | 0.30 | 0.30 | 89 | 1004.9 |
| 20260902224502 | 60 | 176 | 1.0 | 9.0 | 0.00 | 0.30 | 0.30 | 89 | 1004.8 |
| 20260902224002 | 60 | 172 | 2.0 | 13.0 | 0.01 | 0.30 | 0.30 | 89 | 1004.8 |
| 20260902223502 | 60 | 162 | 1.0 | 13.0 | 0.01 | 0.30 | 0.30 | 89 | 1004.8 |
| 20260902223002 | 60 | 133 | 0.0 | 4.0 | 0.01 | 0.30 | 0.30 | 89 | 1004.7 |
| 20260902222502 | 60 | 141 | 0.0 | 7.0 | 0.01 | 0.30 | 0.30 | 89 | 1004.7 |
| 20260902222002 | 60 | 145 | 0.0 | 7.0 | 0.01 | 0.30 | 0.30 | 89 | 1004.7 |
| 20260902221502 | 60 | 148 | 0.0 | 3.0 | 0.01 | 0.30 | 0.30 | 90 | 1004.7 |
| 20260902221002 | 60 | 142 | 0.0 | 3.0 | 0.01 | 0.30 | 0.30 | 90 | 1004.7 |
| 20260902220523 | 59 | 123 | 0.0 | 3.0 | 0.01 | 0.30 | 0.30 | 90 | 1004.7 |
| 20260902220002 | 59 | 139 | 0.0 | 5.0 | 0.01 | 0.30 | 0.30 | 90 | 1004.6 |
| 20260902215502 | 59 | 144 | 0.0 | 12.0 | 0.01 | 0.30 | 0.30 | 90 | 1004.7 |
| 20260902215002 | 59 | 126 | 2.0 | 19.0 | 0.01 | 0.30 | 0.30 | 90 | 1004.6 |
| 20260902214502 | 59 | 125 | 2.0 | 19.0 | 0.01 | 0.30 | 0.30 | 90 | 1004.6 |
| 20260902214002 | 59 | 117 | 0.0 | 3.0 | 0.00 | 0.29 | 0.29 | 92 | 1004.6 |
| 20260902213502 | 59 | 176 | 0.0 | 1.0 | 0.00 | 0.29 | 0.29 | 92 | 1004.6 |
| 20260902213002 | 59 | 168 | 0.0 | 2.0 | 0.00 | 0.29 | 0.29 | 92 | 1004.7 |
| 20260902212502 | 59 | 156 | 0.0 | 2.0 | 0.00 | 0.29 | 0.29 | 92 | 1004.6 |
| 20260902212002 | 59 | 99 | 0.0 | 1.0 | 0.00 | 0.29 | 0.29 | 93 | 1004.7 |
| 20260902211502 | 59 | 0 | 0.0 | 0.0 | 0.01 | 0.29 | 0.29 | 93 | 1004.7 |
| 20260902211002 | 59 | 0 | 0.0 | 0.0 | 0.01 | 0.29 | 0.29 | 93 | 1004.7 |
| 20260902210524 | 59 | 0 | 0.0 | 0.0 | 0.02 | 0.29 | 0.29 | 93 | 1004.7 |
| 20260902210002 | 59 | 0 | 0.0 | 0.0 | 0.03 | 0.29 | 0.29 | 93 | 1004.6 |
| 20260902205524 | 59 | 0 | 0.0 | 0.0 | 0.03 | 0.29 | 0.29 | 94 | 1004.6 |
| 20260902205024 | 59 | 0 | 0.0 | 0.0 | 0.05 | 0.29 | 0.29 | 94 | 1004.6 |
| 20260902204523 | 59 | 0 | 0.0 | 0.0 | 0.05 | 0.29 | 0.29 | 94 | 1004.5 |
| 20260902204002 | 59 | 0 | 0.0 | 0.0 | 0.07 | 0.29 | 0.29 | 94 | 1004.6 |
| 20260902203502 | 59 | 0 | 0.0 | 0.0 | 0.09 | 0.29 | 0.29 | 93 | 1004.5 |
| 20260902203023 | 59 | 0 | 0.0 | 0.0 | 0.10 | 0.29 | 0.29 | 93 | 1004.5 |
| 20260902202502 | 59 | 0 | 0.0 | 0.0 | 0.11 | 0.29 | 0.29 | 94 | 1004.4 |
| 20260902202002 | 59 | 0 | 0.0 | 0.0 | 0.13 | 0.29 | 0.29 | 93 | 1004.3 |
| 20260902201523 | 59 | 0 | 0.0 | 0.0 | 0.14 | 0.28 | 0.28 | 93 | 1004.3 |
| 20260902201002 | 59 | 0 | 0.0 | 0.0 | 0.15 | 0.28 | 0.28 | 93 | 1004.2 |
| 20260902200502 | 59 | 0 | 0.0 | 0.0 | 0.14 | 0.27 | 0.27 | 93 | 1004.3 |
| 20260902200002 | 59 | 0 | 0.0 | 0.0 | 0.14 | 0.26 | 0.26 | 93 | 1004.3 |
| 20260902195502 | 58 | 82 | 0.0 | 1.0 | 0.14 | 0.26 | 0.26 | 93 | 1004.3 |
| 20260902195002 | 58 | 82 | 0.0 | 1.0 | 0.13 | 0.24 | 0.25 | 93 | 1004.4 |
| 20260902194523 | 58 | 0 | 0.0 | 0.0 | 0.14 | 0.24 | 0.24 | 92 | 1004.6 |
| 20260902194002 | 58 | 0 | 0.0 | 0.0 | 0.12 | 0.22 | 0.22 | 92 | 1004.7 |
| 20260902193502 | 59 | 0 | 0.0 | 0.0 | 0.10 | 0.20 | 0.20 | 92 | 1004.7 |
| 20260902193023 | 59 | 0 | 0.0 | 0.0 | 0.09 | 0.19 | 0.19 | 92 | 1004.9 |
| 20260902192523 | 59 | 0 | 0.0 | 0.0 | 0.08 | 0.18 | 0.18 | 91 | 1004.9 |
| 20260902192003 | 59 | 0 | 0.0 | 0.0 | 0.07 | 0.16 | 0.16 | 91 | 1004.9 |
| 20260902191502 | 59 | 0 | 0.0 | 0.0 | 0.05 | 0.14 | 0.14 | 91 | 1004.8 |
| 20260902191002 | 59 | 129 | 0.0 | 2.0 | 0.05 | 0.13 | 0.13 | 91 | 1004.9 |
| 20260902190523 | 59 | 129 | 0.0 | 2.0 | 0.05 | 0.13 | 0.13 | 91 | 1004.8 |
| 20260902190002 | 59 | 0 | 0.0 | 0.0 | 0.05 | 0.12 | 0.12 | 91 | 1004.7 |
| 20260902185502 | 59 | 99 | 0.0 | 3.0 | 0.06 | 0.12 | 0.12 | 90 | 1004.6 |
| 20260902185002 | 59 | 100 | 1.0 | 6.0 | 0.05 | 0.11 | 0.11 | 90 | 1004.7 |
| 20260902184502 | 59 | 100 | 1.0 | 6.0 | 0.05 | 0.10 | 0.10 | 90 | 1004.8 |
| 20260902184002 | 59 | 93 | 0.0 | 3.0 | 0.06 | 0.10 | 0.10 | 90 | 1004.8 |
| 20260902183524 | 59 | 111 | 0.0 | 1.0 | 0.06 | 0.10 | 0.10 | 90 | 1004.8 |
| 20260902183002 | 59 | 0 | 0.0 | 0.0 | 0.06 | 0.10 | 0.10 | 89 | 1005.0 |
| 20260902182502 | 59 | 0 | 0.0 | 0.0 | 0.07 | 0.10 | 0.10 | 89 | 1005.1 |
| 20260902182002 | 59 | 0 | 0.0 | 0.0 | 0.07 | 0.09 | 0.09 | 88 | 1005.2 |
| 20260902181502 | 59 | 218 | 0.0 | 2.0 | 0.08 | 0.09 | 0.09 | 88 | 1005.3 |
| 20260902181002 | 59 | 202 | 0.0 | 2.0 | 0.07 | 0.08 | 0.08 | 88 | 1005.4 |
| 20260902180502 | 59 | 196 | 0.0 | 2.0 | 0.08 | 0.08 | 0.08 | 86 | 1005.5 |
| 20260902180005 | 60 | 203 | 0.0 | 1.0 | 0.07 | 0.07 | 0.07 | 86 | 1005.5 |
| 20260902175523 | 60 | 203 | 0.0 | 1.0 | 0.06 | 0.06 | 0.06 | 85 | 1005.6 |
| 20260902175002 | 61 | 211 | 0.0 | 1.0 | 0.06 | 0.06 | 0.06 | 84 | 1005.6 |
| 20260902174523 | 61 | 211 | 0.0 | 1.0 | 0.05 | 0.05 | 0.05 | 82 | 1005.5 |
| 20260902174023 | 62 | 0 | 0.0 | 0.0 | 0.04 | 0.04 | 0.04 | 82 | 1005.4 |
| 20260902173502 | 62 | 0 | 0.0 | 0.0 | 0.04 | 0.04 | 0.04 | 81 | 1005.3 |
| 20260902173002 | 63 | 0 | 0.0 | 0.0 | 0.04 | 0.04 | 0.04 | 80 | 1005.2 |
| 20260902172523 | 63 | 0 | 0.0 | 0.0 | 0.03 | 0.03 | 0.03 | 78 | 1005.2 |
| 20260902172002 | 63 | 0 | 0.0 | 0.0 | 0.02 | 0.02 | 0.02 | 77 | 1005.1 |
| 20260902171524 | 64 | 211 | 0.0 | 1.0 | 0.01 | 0.01 | 0.01 | 76 | 1005.0 |
| 20260902171002 | 64 | 211 | 0.0 | 1.0 | 0.01 | 0.01 | 0.01 | 73 | 1004.8 |
| 20260902170502 | 64 | 211 | 0.0 | 1.0 | 0.00 | 0.00 | 0.00 | 71 | 1004.8 |
| 20260902170002 | 64 | 0 | 0.0 | 0.0 | 0.00 | 0.00 | 0.00 | 71 | 1004.7 |
| 20260902165502 | 64 | 0 | 0.0 | 0.0 | 0.00 | 0.00 | 0.00 | 69 | 1004.7 |
| 20260902165002 | 64 | 0 | 0.0 | 0.0 | 0.00 | 0.00 | 0.00 | 67 | 1004.7 |
| 20260902164502 | 65 | 0 | 0.0 | 0.0 | 0.00 | 0.00 | 0.00 | 66 | 1004.6 |
| 20260902164002 | 65 | 195 | 0.0 | 1.0 | 0.00 | 0.00 | 0.00 | 66 | 1004.7 |
| 20260902163502 | 65 | 199 | 0.0 | 1.0 | 0.00 | 0.00 | 0.00 | 66 | 1004.6 |
| 20260902163002 | 65 | 191 | 0.0 | 4.0 | 0.00 | 0.00 | 0.00 | 66 | 1004.6 |
| 20260902162502 | 65 | 174 | 0.0 | 4.0 | 0.00 | 0.00 | 0.00 | 66 | 1004.7 |
| 20260902162003 | 65 | 177 | 0.0 | 4.0 | 0.00 | 0.00 | 0.00 | 66 | 1004.7 |
| 20260902161502 | 64 | 197 | 0.0 | 4.0 | 0.00 | 0.00 | 0.00 | 65 | 1004.7 |
| 20260902161002 | 64 | 0 | 0.0 | 0.0 | 0.00 | 0.00 | 0.00 | 65 | 1004.7 |
| 20260902160502 | 64 | 0 | 0.0 | 0.0 | 0.00 | 0.00 | 0.00 | 66 | 1004.7 |
| 20260902160003 | 64 | 131 | 0.0 | 2.0 | 0.00 | 0.00 | 0.00 | 66 | 1004.8 |
| 20260902155502 | 64 | 131 | 0.0 | 2.0 | 0.00 | 0.00 | 0.00 | 67 | 1004.8 |
| 20260902155003 | 63 | 0 | 0.0 | 0.0 | 0.00 | 0.00 | 0.00 | 68 | 1004.9 |
| 20260902154523 | 63 | 0 | 0.0 | 0.0 | 0.00 | 0.00 | 0.00 | 69 | 1004.9 |
| 20260902154002 | 63 | 0 | 0.0 | 0.0 | 0.00 | 0.00 | 0.00 | 69 | 1005.0 |
| 20260902153502 | 62 | 0 | 0.0 | 0.0 | 0.00 | 0.00 | 0.00 | 70 | 1005.0 |
| 20260902153002 | 62 | 0 | 0.0 | 0.0 | 0.00 | 0.00 | 0.00 | 72 | 1005.1 |
| 20260902152502 | 62 | 0 | 0.0 | 0.0 | 0.00 | 0.00 | 0.00 | 72 | 1005.1 |
| 20260902152002 | 62 | 0 | 0.0 | 0.0 | 0.00 | 0.00 | 0.00 | 73 | 1005.2 |
| 20260902151502 | 62 | 0 | 0.0 | 0.0 | 0.00 | 0.00 | 0.00 | 73 | 1005.3 |
| 20260902151003 | 61 | 0 | 0.0 | 0.0 | 0.00 | 0.00 | 0.00 | 73 | 1005.3 |
| 20260902150502 | 61 | 0 | 0.0 | 0.0 | 0.00 | 0.00 | 0.00 | 73 | 1005.3 |
| 20260902150002 | 61 | 78 | 0.0 | 1.0 | 0.00 | 0.00 | 0.00 | 73 | 1005.3 |
| 20260902145502 | 61 | 78 | 0.0 | 1.0 | 0.00 | 0.00 | 0.00 | 74 | 1005.4 |
| 20260902145002 | 61 | 0 | 0.0 | 0.0 | 0.00 | 0.00 | 0.00 | 74 | 1005.5 |
| 20260902144502 | 61 | 0 | 0.0 | 0.0 | 0.00 | 0.00 | 0.00 | 74 | 1005.6 |
| 20260902144002 | 61 | 0 | 0.0 | 0.0 | 0.00 | 0.00 | 0.00 | 74 | 1005.6 |
| 20260902143504 | 61 | 0 | 0.0 | 0.0 | 0.00 | 0.00 | 0.00 | 75 | 1005.6 |
| 20260902143024 | 60 | 0 | 0.0 | 0.0 | 0.00 | 0.00 | 0.00 | 75 | 1005.6 |
| 20260902142502 | 60 | 0 | 0.0 | 0.0 | 0.00 | 0.00 | 0.00 | 76 | 1005.7 |
| 20260902142002 | 60 | 0 | 0.0 | 0.0 | 0.00 | 0.00 | 0.00 | 76 | 1005.7 |
| 20260902141502 | 60 | 0 | 0.0 | 0.0 | 0.00 | 0.00 | 0.00 | 76 | 1005.8 |
| 20260902141002 | 60 | 0 | 0.0 | 0.0 | 0.00 | 0.00 | 0.00 | 76 | 1005.8 |
| 20260902140523 | 60 | 0 | 0.0 | 0.0 | 0.00 | 0.00 | 0.00 | 76 | 1005.9 |
| 20260902140002 | 60 | 0 | 0.0 | 0.0 | 0.00 | 0.00 | 0.00 | 76 | 1006.0 |
| 20260902135523 | 60 | 0 | 0.0 | 0.0 | 0.00 | 0.00 | 0.00 | 76 | 1006.1 |
| 20260902135002 | 60 | 0 | 0.0 | 0.0 | 0.00 | 0.00 | 0.00 | 76 | 1006.1 |
| 20260902134523 | 60 | 0 | 0.0 | 0.0 | 0.00 | 0.00 | 0.00 | 76 | 1006.2 |
| 20260902134002 | 60 | 0 | 0.0 | 0.0 | 0.00 | 0.00 | 0.00 | 76 | 1006.2 |
| 20260902133502 | 60 | 0 | 0.0 | 0.0 | 0.00 | 0.00 | 0.00 | 76 | 1006.2 |
| 20260902133002 | 60 | 0 | 0.0 | 0.0 | 0.00 | 0.00 | 0.00 | 76 | 1006.3 |
| 20260902132502 | 60 | 0 | 0.0 | 0.0 | 0.00 | 0.00 | 0.00 | 76 | 1006.4 |
| 20260902132023 | 60 | 0 | 0.0 | 0.0 | 0.00 | 0.00 | 0.00 | 76 | 1006.5 |
| 20260902131502 | 60 | 0 | 0.0 | 0.0 | 0.00 | 0.00 | 0.00 | 76 | 1006.4 |
| 20260902131002 | 60 | 0 | 0.0 | 0.0 | 0.00 | 0.00 | 0.00 | 76 | 1006.5 |
| 20260902130502 | 60 | 0 | 0.0 | 0.0 | 0.00 | 0.00 | 0.00 | 76 | 1006.6 |
| 20260902130002 | 60 | 0 | 0.0 | 0.0 | 0.00 | 0.00 | 0.00 | 76 | 1006.8 |
| 20260902125523 | 60 | 0 | 0.0 | 0.0 | 0.00 | 0.00 | 0.00 | 76 | 1006.9 |
| 20260902125002 | 60 | 0 | 0.0 | 0.0 | 0.00 | 0.00 | 0.00 | 76 | 1006.9 |
| 20260902124502 | 60 | 0 | 0.0 | 0.0 | 0.00 | 0.00 | 0.00 | 77 | 1006.9 |
| 20260902124002 | 60 | 111 | 0.0 | 1.0 | 0.00 | 0.00 | 0.00 | 77 | 1007.0 |
| 20260902123502 | 60 | 108 | 0.0 | 1.0 | 0.00 | 0.00 | 0.00 | 77 | 1007.1 |
| 20260902123002 | 60 | 112 | 0.0 | 2.0 | 0.00 | 0.00 | 0.00 | 77 | 1007.0 |
| 20260902122502 | 60 | 113 | 0.0 | 2.0 | 0.00 | 0.00 | 0.00 | 77 | 1007.2 |
| 20260902122023 | 60 | 0 | 0.0 | 0.0 | 0.00 | 0.00 | 0.00 | 77 | 1007.3 |
| 20260902121523 | 60 | 0 | 0.0 | 0.0 | 0.00 | 0.00 | 0.00 | 77 | 1007.3 |
| 20260902121002 | 60 | 136 | 0.0 | 1.0 | 0.00 | 0.00 | 0.00 | 77 | 1007.4 |
| 20260902120502 | 60 | 113 | 0.0 | 1.0 | 0.00 | 0.00 | 0.00 | 78 | 1007.5 |
| 20260902120002 | 60 | 90 | 0.0 | 1.0 | 0.00 | 0.00 | 0.00 | 78 | 1007.6 |
| 20260902115502 | 60 | 0 | 0.0 | 0.0 | 0.00 | 0.00 | 0.00 | 78 | 1007.6 |
| 20260902115002 | 60 | 0 | 0.0 | 0.0 | 0.00 | 0.00 | 0.00 | 78 | 1007.7 |
| 20260902114503 | 59 | 0 | 0.0 | 0.0 | 0.00 | 0.00 | 0.00 | 79 | 1007.8 |
| 20260902114024 | 59 | 113 | 0.0 | 1.0 | 0.00 | 0.00 | 0.00 | 79 | 1007.8 |
| 20260902113503 | 59 | 113 | 0.0 | 1.0 | 0.00 | 0.00 | 0.00 | 79 | 1007.8 |
| 20260902113024 | 59 | 119 | 0.0 | 7.0 | 0.00 | 0.00 | 0.00 | 80 | 1007.9 |
| 20260902112502 | 59 | 119 | 0.0 | 7.0 | 0.00 | 0.00 | 0.00 | 80 | 1007.9 |
| 20260902112002 | 59 | 0 | 0.0 | 0.0 | 0.00 | 0.00 | 0.00 | 81 | 1008.0 |
| 20260902111523 | 59 | 0 | 0.0 | 0.0 | 0.00 | 0.00 | 0.00 | 82 | 1008.0 |
| 20260902111002 | 59 | 0 | 0.0 | 0.0 | 0.00 | 0.00 | 0.00 | 82 | 1008.0 |
| 20260902110502 | 59 | 0 | 0.0 | 0.0 | 0.00 | 0.00 | 0.00 | 83 | 1008.1 |
| 20260902110003 | 59 | 0 | 0.0 | 0.0 | 0.00 | 0.00 | 0.00 | 83 | 1008.1 |
| 20260902105502 | 59 | 0 | 0.0 | 0.0 | 0.00 | 0.00 | 0.00 | 82 | 1008.1 |
| 20260902105002 | 59 | 0 | 0.0 | 0.0 | 0.00 | 0.00 | 0.00 | 82 | 1008.3 |
| 20260902104503 | 59 | 0 | 0.0 | 0.0 | 0.00 | 0.00 | 0.00 | 82 | 1008.2 |
| 20260902104002 | 59 | 0 | 0.0 | 0.0 | 0.00 | 0.00 | 0.00 | 82 | 1008.2 |
| 20260902103502 | 59 | 0 | 0.0 | 0.0 | 0.00 | 0.00 | 0.00 | 82 | 1008.3 |
| 20260902103002 | 59 | 0 | 0.0 | 0.0 | 0.00 | 0.00 | 0.00 | 82 | 1008.4 |
| 20260902102502 | 59 | 0 | 0.0 | 0.0 | 0.00 | 0.00 | 0.00 | 82 | 1008.4 |
| 20260902102002 | 59 | 0 | 0.0 | 0.0 | 0.00 | 0.00 | 0.00 | 82 | 1008.4 |
| 20260902101502 | 59 | 0 | 0.0 | 0.0 | 0.00 | 0.00 | 0.00 | 82 | 1008.4 |
| 20260902101003 | 59 | 0 | 0.0 | 0.0 | 0.00 | 0.00 | 0.00 | 82 | 1008.4 |
| 20260902100503 | 59 | 0 | 0.0 | 0.0 | 0.00 | 0.00 | 0.00 | 82 | 1008.5 |
| 20260902100002 | 59 | 0 | 0.0 | 0.0 | 0.00 | 0.00 | 0.00 | 82 | 1008.5 |
| 20260902095502 | 59 | 0 | 0.0 | 0.0 | 0.00 | 0.00 | 0.00 | 82 | 1008.5 |
| 20260902095002 | 59 | 0 | 0.0 | 0.0 | 0.00 | 0.00 | 0.00 | 82 | 1008.5 |
| 20260902094502 | 58 | 0 | 0.0 | 0.0 | 0.00 | 0.00 | 0.00 | 82 | 1008.6 |
| 20260902094002 | 58 | 0 | 0.0 | 0.0 | 0.00 | 0.00 | 0.00 | 83 | 1008.6 |
| 20260902093502 | 58 | 0 | 0.0 | 0.0 | 0.00 | 0.00 | 0.00 | 83 | 1008.7 |
| 20260902093002 | 58 | 0 | 0.0 | 0.0 | 0.00 | 0.00 | 0.00 | 83 | 1008.9 |
| 20260902092523 | 58 | 0 | 0.0 | 0.0 | 0.00 | 0.00 | 0.00 | 83 | 1008.9 |
| 20260902092002 | 58 | 0 | 0.0 | 0.0 | 0.00 | 0.00 | 0.00 | 84 | 1008.9 |
| 20260902091502 | 58 | 0 | 0.0 | 0.0 | 0.00 | 0.00 | 0.00 | 84 | 1009.1 |
| 20260902091002 | 58 | 0 | 0.0 | 0.0 | 0.00 | 0.00 | 0.00 | 84 | 1009.1 |
| 20260902090502 | 58 | 0 | 0.0 | 0.0 | 0.00 | 0.00 | 0.00 | 84 | 1009.0 |
| 20260902090002 | 58 | 0 | 0.0 | 0.0 | 0.00 | 0.00 | 0.00 | 84 | 1009.1 |
| 20260902085502 | 58 | 0 | 0.0 | 0.0 | 0.00 | 0.00 | 0.00 | 83 | 1009.2 |
| 20260902085002 | 58 | 0 | 0.0 | 0.0 | 0.00 | 0.00 | 0.00 | 83 | 1009.3 |
| 20260902084502 | 58 | 0 | 0.0 | 0.0 | 0.00 | 0.00 | 0.00 | 83 | 1009.3 |
| 20260902084002 | 58 | 0 | 0.0 | 0.0 | 0.00 | 0.00 | 0.00 | 83 | 1009.3 |
| 20260902083523 | 58 | 0 | 0.0 | 0.0 | 0.00 | 0.00 | 0.00 | 84 | 1009.2 |
| 20260902083002 | 58 | 0 | 0.0 | 0.0 | 0.00 | 0.00 | 0.00 | 84 | 1009.3 |
| 20260902082523 | 59 | 0 | 0.0 | 0.0 | 0.00 | 0.00 | 0.00 | 84 | 1009.3 |
| 20260902082023 | 59 | 0 | 0.0 | 0.0 | 0.00 | 0.00 | 0.00 | 84 | 1009.2 |